Lapse_Rate
6.1 5.8 5.9 6.5 6.9 7.0 7.0 7.2 7.4 7.5 8.4 8.0 7.5 7.2 6.7 7.1 7.3 7.5 7.3 6.6 6.0 4.9 5.6 5.5 5.4 5.4 5.4 5.6 5.7 5.8 5.8 5.8 6.0 6.2 6.3 6.3 6.3 6.3 6.3 6.5 6.6 6.6 6.4 6.3
5.9 5.8 6.3 6.6 6.8 6.5 6.5 6.5 6.8 7.2 7.6 7.7 7.4 6.9 6.7 6.9 7.1 7.4 7.2 6.6 5.9 4.8 5.5 5.4 5.3 5.1 5.2 5.3 5.4 5.6 5.8 6.0 6.1 6.1 6.1 6.1 6.2 6.4 6.5 6.5 6.4 6.3 6.4 6.2
6.5 7.0 6.7 6.5 6.7 6.6 6.7 6.6 6.8 6.9 7.0 6.9 6.9 6.6 6.8 7.1 6.8 6.6 6.6 7.2 5.6 5.1 5.3 5.6 5.8 5.6 5.7 5.7 5.6 5.7 5.8 6.0 6.1 6.1 6.1 6.0 6.1 6.2 6.2 6.3 6.3 6.4 6.5 6.4
6.6 6.8 6.9 6.6 6.1 6.6 6.5 7.0 6.9 6.5 6.5 6.6 7.1 7.4 7.2 7.8 7.7 7.1 6.7 6.9 6.1 4.9 4.8 5.3 5.8 5.9 6.0 5.9 5.8 6.0 6.1 6.1 6.1 6.0 6.0 6.1 6.0 6.0 6.0 6.1 6.2 6.4 6.6 6.7
6.5 6.8 6.7 6.4 6.5 6.5 6.6 6.7 6.1 6.2 6.3 6.3 6.4 7.6 6.4 7.7 8.9 7.4 6.2 6.2 5.6 5.8 5.7 5.6 5.8 5.9 6.1 6.3 6.3 6.2 6.2 6.3 6.3 6.2 6.0 6.0 5.9 5.9 5.9 6.0 6.1 6.3 6.5 6.6
6.3 7.1 6.6 6.4 6.8 6.7 6.7 6.2 6.2 6.3 6.5 6.4 6.5 8.2 6.9 8.0 9.1 8.5 7.3 5.5 6.0 6.5 6.6 6.8 6.8 6.5 6.7 6.5 6.5 6.4 6.4 6.4 6.2 6.0 6.0 6.0 6.2 6.2 6.3 6.4 6.5 6.6 6.7 6.9
6.9 6.9 6.8 6.5 6.6 6.5 6.3 6.7 6.9 7.4 7.7 7.3 7.9 9.1 9.1 8.6 8.7 8.6 7.5 7.0 6.7 7.2 7.0 7.1 7.1 7.1 7.1 6.9 6.7 6.5 6.3 6.1 6.0 6.0 6.1 6.2 6.1 6.1 6.2 6.2 6.4 6.6 6.9 7.1
7.5 7.6 7.2 6.9 6.6 7.2 6.8 7.1 7.7 7.7 7.9 8.6 8.3 8.8 7.8 8.5 8.6 8.5 8.1 7.8 7.0 7.1 7.6 7.6 7.3 7.4 7.4 7.1 6.9 6.6 6.4 6.4 6.3 6.2 6.2 6.1 6.0 6.0 5.9 6.0 6.2 6.5 6.7 6.8
8.6 9.0 8.3 7.5 6.9 7.3 7.8 8.2 8.4 8.9 8.3 8.1 7.5 7.7 8.7 8.7 9.1 8.5 8.0 7.6 7.2 7.6 7.9 7.8 7.5 7.6 7.5 7.3 7.0 6.8 6.6 6.5 6.4 6.3 6.1 6.0 6.0 5.9 5.8 5.9 6.1 6.2 6.3 6.4
8.0 8.6 8.6 8.4 7.9 7.5 7.5 8.3 8.3 8.3 7.9 8.1 8.6 8.6 9.2 8.6 8.2 7.8 7.4 6.9 6.9 7.0 7.9 7.8 7.5 7.4 7.5 7.4 7.2 6.9 6.7 6.6 6.4 6.2 6.1 5.9 5.9 5.8 5.8 5.8 5.6 5.7 5.7 5.6
7.6 7.7 8.1 8.5 7.5 8.1 8.7 8.8 8.8 8.7 8.4 8.3 8.1 8.2 8.8 8.2 8.1 7.7 7.4 7.1 6.8 7.0 7.5 7.5 7.2 7.3 7.2 7.2 7.2 7.0 6.7 6.5 6.3 6.1 5.9 5.8 5.7 5.7 5.9 5.6 5.4 5.4 5.4 5.5
8.2 7.5 7.4 8.1 8.5 8.6 8.6 8.6 8.6 8.0 7.8 7.3 7.0 7.0 8.6 7.8 7.6 7.0 6.6 6.9 6.6 6.9 6.2 7.2 7.2 7.1 6.9 7.1 7.1 6.9 6.8 6.4 6.1 5.7 5.8 5.7 5.7 5.9 5.9 5.6 5.4 5.4 5.5 5.6
7.6 7.6 7.7 7.7 8.4 8.5 8.8 8.8 8.8 8.9 8.7 8.2 8.1 7.9 8.2 8.6 8.3 7.5 7.6 7.2 6.8 6.5 6.6 6.9 7.4 7.0 6.9 7.0 6.9 6.8 6.5 6.1 5.9 5.8 5.9 5.9 6.0 5.9 5.8 5.5 5.3 5.3 5.3 5.8
7.9 7.9 7.9 8.1 8.2 8.7 8.6 8.7 8.8 8.7 8.2 7.9 7.8 8.0 7.9 8.0 8.5 8.5 8.0 7.3 7.4 7.4 6.5 6.5 6.9 6.9 7.0 6.9 6.8 6.6 6.3 6.0 5.9 5.9 5.9 6.0 6.0 5.7 5.5 5.1 5.0 5.3 5.3 5.6
7.7 7.5 7.7 7.8 7.6 8.0 8.5 8.8 8.6 8.6 9.1 8.6 8.2 8.8 8.4 8.3 9.3 8.9 8.3 8.0 7.6 7.2 7.0 6.8 7.0 7.4 7.0 6.6 6.5 6.3 6.0 5.9 6.0 5.9 6.0 6.1 6.0 5.9 5.6 5.3 5.4 5.5 5.6 5.6
7.6 7.2 7.5 7.5 7.5 8.0 8.2 8.1 8.0 8.4 8.7 9.0 9.2 9.1 8.3 8.8 8.8 9.3 8.5 7.4 7.2 7.6 7.1 6.8 7.2 7.0 6.7 6.4 6.4 5.9 5.8 6.0 6.1 6.1 6.3 6.2 6.1 6.2 6.0 6.0 6.0 5.9 5.9 6.0
7.4 7.4 7.5 7.6 7.9 8.1 7.8 7.3 8.1 8.7 9.1 9.3 9.2 9.1 8.6 8.4 8.5 8.1 7.8 8.0 7.5 7.2 7.5 7.1 7.0 6.8 6.5 6.2 5.8 5.7 6.0 6.1 6.3 6.4 6.5 6.3 6.3 6.1 6.2 6.4 6.4 6.4 6.4 6.6
7.9 7.9 7.8 7.5 7.6 7.7 7.6 7.8 8.3 8.7 8.7 8.5 8.7 8.8 8.5 8.6 8.6 7.8 7.6 8.4 7.7 7.2 7.8 7.4 7.1 6.7 6.3 6.3 6.2 6.0 6.1 6.3 6.5 6.5 6.4 6.3 6.2 6.3 6.5 6.7 6.9 6.7 6.7 6.7
7.7 7.8 7.8 7.8 7.8 7.8 7.6 7.5 8.4 8.6 8.4 8.2 8.5 8.2 8.2 8.5 8.0 8.3 8.1 7.8 7.6 7.5 7.3 7.0 6.8 6.6 6.5 6.4 6.3 6.2 6.3 6.4 6.4 6.4 6.2 6.1 6.2 6.5 6.7 7.0 7.1 7.2 6.7 6.6
7.8 7.7 7.9 7.6 7.8 7.9 7.4 8.1 8.5 8.5 7.8 8.3 8.3 8.2 8.3 8.3 7.9 8.0 7.9 7.7 7.3 7.1 7.0 6.9 6.8 6.7 6.7 6.4 6.3 6.2 6.2 6.2 6.2 6.0 5.8 5.9 6.3 6.5 6.7 7.3 7.4 7.0 6.7 6.7
8.6 7.9 7.6 7.6 7.6 7.5 7.6 7.9 8.2 8.3 7.6 7.9 8.0 8.0 8.1 8.0 7.7 7.5 7.3 7.2 7.1 7.1 7.0 6.9 6.9 6.9 6.5 6.2 6.0 6.0 5.9 6.0 5.9 5.6 5.6 5.9 6.1 6.5 6.7 6.9 7.1 6.9 7.0 6.9
8.2 8.3 7.7 7.6 7.6 7.4 7.8 7.8 7.8 7.9 7.7 7.6 7.7 7.7 7.9 7.5 7.1 6.9 7.0 7.0 7.0 7.0 6.8 6.8 7.0 6.5 6.0 5.9 5.8 5.7 5.7 5.7 5.5 5.3 5.5 5.9 6.2 6.5 6.6 6.9 6.9 7.0 6.9 6.9
7.6 7.9 8.0 8.0 7.8 7.9 7.8 7.4 7.6 7.6 7.6 7.5 7.5 7.4 7.5 7.0 7.1 7.0 7.0 6.9 6.8 6.7 6.7 6.8 6.4 6.0 5.8 5.6 5.5 5.5 5.4 5.4 5.2 5.3 5.8 6.0 6.2 6.5 6.8 6.8 6.7 6.9 6.9 6.6
7.8 7.9 7.7 7.7 7.7 7.9 7.9 8.0 7.7 7.6 7.6 7.3 7.4 7.1 6.9 6.6 7.0 6.9 6.8 6.7 6.6 6.5 6.5 6.3 5.8 5.5 5.5 5.3 5.2 5.1 5.2 5.1 5.1 5.6 5.9 6.1 6.3 6.5 6.4 6.4 6.5 6.5 6.5 6.2
7.2 7.3 7.7 7.6 7.5 7.8 7.6 7.2 7.6 7.6 7.5 7.4 7.0 7.0 6.7 6.8 6.9 6.8 6.7 6.5 6.6 6.4 6.2 5.8 5.4 5.3 5.3 5.1 5.0 5.0 5.0 5.0 5.3 5.7 5.8 6.0 6.4 6.3 6.3 6.3 6.4 6.3 6.0 5.8
7.7 7.2 7.4 7.4 7.6 7.5 7.7 7.8 7.5 7.3 7.2 7.1 6.8 6.8 6.8 6.7 6.7 6.7 6.7 6.8 6.4 6.2 5.9 5.5 5.2 5.3 5.3 5.0 5.0 5.0 5.0 5.2 5.5 5.6 5.8 6.2 6.1 6.1 6.0 5.9 6.1 6.0 5.8 5.7
Wind_Speed
13 9 12 17 18 16 14 14 15 15 17 14 14 15 13 16 19 17 11 12 13 11 10 7 6 7 8 8 8 9 8 9 7 6 7 6 4 4 3 7 10 15 13 14
13 14 16 16 17 7 12 14 16 17 16 15 18 18 17 19 19 16 11 7 14 14 10 6 5 7 6 7 8 8 10 10 8 7 5 4 4 4 6 7 9 17 13 15
19 15 6 5 13 11 14 15 16 18 16 15 17 22 21 23 20 8 3 3 15 13 12 10 6 3 4 6 7 9 9 10 9 10 7 6 6 6 7 7 7 10 14 16
17 18 21 14 14 15 18 16 15 11 9 11 12 15 15 15 9 9 9 8 10 11 12 12 9 6 6 6 5 6 8 9 9 10 8 9 8 6 6 7 9 8 18 15
13 9 10 15 18 16 19 8 7 11 12 13 17 10 19 15 17 17 14 11 11 10 10 10 7 9 7 5 5 5 8 9 9 9 9 8 8 6 6 8 10 11 10 17
19 19 8 11 13 9 8 4 11 13 10 12 17 14 18 14 7 18 17 15 14 14 13 12 10 8 8 5 5 5 8 9 8 8 9 9 9 9 7 9 8 8 8 9
19 20 14 12 10 9 8 9 5 6 9 11 17 12 10 14 3 13 19 17 15 14 13 13 12 9 7 5 5 6 8 8 8 8 9 10 10 9 10 9 8 10 8 8
13 14 20 15 16 14 17 13 7 9 10 14 21 13 9 8 8 13 16 17 17 14 13 12 11 9 8 6 5 6 7 8 7 8 9 8 10 6 7 8 7 7 7 8
9 13 14 19 9 13 13 12 14 12 13 12 14 21 18 18 15 9 9 10 16 16 14 13 11 9 8 8 6 5 6 7 7 7 6 8 8 9 8 9 9 7 8 9
13 11 7 11 8 12 8 10 8 4 3 12 13 16 8 11 8 4 2 5 11 15 16 13 11 10 8 8 7 5 5 7 7 7 7 7 7 7 7 7 9 9 8 10
11 11 12 11 6 14 12 12 11 9 9 11 13 11 8 10 8 4 6 8 18 16 14 14 13 11 10 7 8 6 5 7 6 5 6 6 6 7 7 7 7 8 9 9
6 5 9 14 13 14 3 11 11 5 6 2 4 8 13 7 2 10 15 8 13 4 13 13 12 13 10 8 8 6 6 6 5 4 6 5 5 5 7 8 8 8 9 11
9 3 7 13 14 16 15 12 17 15 12 15 12 12 10 16 8 5 3 6 5 9 12 12 11 11 10 8 6 7 6 5 6 6 6 6 7 7 7 7 6 7 9 10
3 8 13 11 15 16 15 15 16 15 10 13 13 17 19 16 17 12 11 4 6 14 6 9 11 10 9 8 7 8 6 5 7 7 7 7 7 7 7 7 8 9 9 10
5 12 15 18 22 21 21 21 22 20 17 17 19 18 19 17 13 4 10 10 11 14 14 12 10 10 9 8 8 8 6 6 8 8 7 6 7 7 7 7 8 8 10 10
13 12 12 18 20 19 22 23 24 23 22 23 22 23 20 18 17 7 8 11 12 14 14 13 12 11 10 9 8 8 7 6 7 8 6 4 7 6 6 7 7 9 9 9
13 4 11 16 17 17 11 22 21 21 20 19 17 15 15 16 5 6 3 1 14 15 15 12 11 10 9 8 7 8 6 7 7 7 5 3 5 5 4 7 7 6 7 7
14 13 9 12 13 16 16 20 20 21 21 21 18 16 16 18 7 7 4 5 9 14 15 12 11 11 8 7 9 7 7 7 7 6 4 5 4 4 5 4 6 4 4 6
16 14 13 13 15 17 25 19 10 14 20 20 16 16 15 4 9 7 12 15 13 13 12 12 11 10 9 8 7 6 7 7 7 5 4 3 4 3 3 4 5 4 5 5
21 18 13 13 16 18 24 16 16 8 16 9 9 9 14 8 4 4 10 13 14 14 13 12 11 10 9 7 8 7 6 6 5 3 4 4 4 3 4 4 3 2 4 4
9 13 15 15 14 14 22 19 18 14 8 6 6 7 8 5 3 9 12 10 9 12 13 13 10 8 7 7 8 8 7 7 4 3 4 4 5 4 4 3 3 3 4 4
15 11 10 9 11 14 4 11 8 3 2 4 6 2 5 12 10 11 11 10 10 11 12 12 10 8 6 5 8 8 7 6 6 4 5 4 4 5 4 4 3 3 3 4
13 14 12 12 9 2 5 9 7 7 5 5 3 10 13 14 9 11 10 10 9 11 10 11 9 10 8 9 9 8 8 9 7 7 5 4 4 5 6 8 9 8 8 7
13 16 10 10 10 12 11 3 7 4 5 2 4 13 12 10 13 12 10 10 9 10 10 10 11 10 10 10 10 10 9 8 7 7 7 6 7 8 8 7 8 7 7 7
5 10 7 6 12 7 13 14 6 7 3 2 3 11 10 12 12 13 11 11 9 9 10 11 10 10 11 11 11 11 10 11 8 7 7 7 7 8 7 7 6 6 6 8
9 13 5 7 10 2 8 3 7 5 6 6 8 8 10 12 12 12 11 9 9 10 10 10 10 9 10 10 8 8 8 7 7 5 5 4 4 3 7 6 6 13 13 14
Wind_Direction
197 216 232 241 236 259 284 276 281 285 300 283 267 268 262 275 267 262 215 225 138 119 109 100 91 56 66 49 53 50 50 35 22 23 22 3 360 13 21 33 32 33 14 12
245 228 250 270 277 301 286 275 273 280 277 273 284 283 280 269 263 262 240 100 119 121 142 134 117 62 46 45 34 39 38 40 26 360 21 353 346 357 41 12 26 19 8 10
251 248 137 263 274 240 251 259 271 275 286 293 296 278 265 253 253 201 125 220 132 148 159 153 136 106 73 52 36 44 40 42 31 4 19 1 1 4 18 3 16 358 6 6
260 260 263 246 242 263 264 273 288 299 286 269 271 286 273 291 195 158 165 168 138 153 153 157 151 125 92 77 61 58 54 44 34 28 25 26 18 12 8 5 4 351 10 1
231 231 245 256 260 237 262 290 301 279 275 285 265 260 276 271 267 174 166 163 161 149 155 142 137 123 101 97 84 57 65 50 40 39 30 27 27 8 2 16 0 12 357 4
242 272 272 241 257 241 280 280 268 252 250 254 266 252 267 272 336 178 161 168 166 163 165 140 132 135 122 104 89 61 77 59 45 41 45 35 28 22 15 13 8 358 6 5
241 233 231 239 240 200 226 246 269 248 233 242 259 273 261 319 180 156 169 169 169 166 154 147 162 156 126 109 96 98 74 62 52 44 47 39 30 28 29 19 9 11 2 1
213 219 213 194 227 223 210 225 230 275 279 295 304 284 281 329 84 121 166 171 163 166 159 160 150 134 140 123 87 81 81 70 60 51 52 47 40 33 32 27 19 13 6 354
256 255 179 206 186 227 248 251 269 283 284 285 273 274 269 274 245 161 154 165 161 168 144 163 143 136 140 124 99 80 88 82 67 59 59 53 46 40 37 36 27 13 8 1
275 279 187 184 231 248 264 294 296 292 265 271 274 278 316 36 33 10 334 248 171 160 157 159 150 139 128 125 118 107 91 85 67 64 48 54 53 47 40 39 32 17 15 9
297 279 258 233 188 254 244 232 245 277 280 273 281 271 87 36 332 291 288 313 309 155 169 154 158 152 134 129 132 127 99 84 75 65 66 52 50 49 46 42 38 23 18 14
7 320 290 274 269 277 309 290 277 238 252 222 217 259 288 154 352 351 344 274 230 162 190 154 151 140 140 153 141 125 113 103 85 79 81 73 65 60 62 43 40 31 26 22
346 242 281 277 270 267 265 259 260 263 246 264 281 273 303 307 253 69 150 264 331 176 170 161 149 148 142 135 123 114 95 91 89 64 69 60 51 45 54 53 45 42 39 27
6 270 258 273 285 308 302 289 275 260 267 273 269 286 288 272 277 229 242 295 13 138 192 151 160 140 129 135 125 108 96 87 88 78 62 57 50 46 44 40 40 37 42 32
225 258 265 271 271 274 277 283 277 272 271 249 268 266 271 289 296 179 197 206 157 149 161 180 156 132 131 120 111 104 88 73 75 71 59 52 52 47 42 42 47 40 47 47
218 244 259 271 274 282 281 275 273 275 277 280 283 282 287 293 296 255 226 217 169 166 175 157 141 148 137 122 110 102 91 81 83 90 82 33 64 54 45 49 42 51 41 47
256 235 275 265 275 282 290 259 268 274 275 279 280 293 321 318 3 330 320 195 161 159 174 137 141 111 110 104 117 110 105 89 84 79 75 85 75 68 38 58 57 52 52 48
265 265 258 259 274 267 257 269 278 285 286 282 286 300 304 310 48 58 26 238 153 136 127 124 115 111 112 109 103 108 104 106 105 94 79 70 68 63 68 54 59 45 55 56
251 257 258 256 258 270 281 269 292 288 284 282 297 292 292 330 96 62 45 58 81 96 96 102 104 106 98 97 109 111 120 121 104 101 95 78 65 63 63 62 59 39 54 47
239 235 239 244 250 258 256 280 273 332 279 316 323 343 346 97 218 91 83 83 91 98 110 111 112 114 118 132 124 110 100 101 90 91 109 95 92 81 64 63 63 48 68 55
238 232 236 240 250 259 270 284 282 273 281 19 25 34 47 64 58 101 97 95 98 115 113 117 118 126 135 141 125 119 113 106 108 101 79 72 92 76 96 84 54 43 52 60
266 246 223 231 241 259 308 305 287 350 337 299 295 244 84 116 119 114 117 122 126 127 133 138 133 128 129 125 125 128 117 123 122 107 98 86 73 71 55 54 80 49 46 61
263 259 268 252 259 239 178 221 234 287 285 290 322 102 134 134 133 135 136 137 143 147 147 144 141 143 150 151 147 132 153 140 135 118 111 98 93 101 81 57 44 37 31 36
284 260 256 283 282 291 311 348 185 209 258 24 12 129 144 147 144 144 144 146 155 160 155 148 148 159 166 164 151 148 148 143 137 136 123 102 82 56 52 82 63 45 34 33
259 301 283 278 268 303 306 274 254 183 190 161 103 136 141 148 153 149 150 157 163 153 144 147 162 167 161 153 147 155 153 158 149 134 129 128 122 103 83 58 68 82 63 61
264 278 297 301 312 271 290 355 323 168 194 145 116 127 145 163 154 152 153 155 152 148 152 158 164 165 147 138 144 150 145 134 127 118 100 97 89 97 140 124 100 86 89 81